カタログに戻る

STARLINK-2620

運用中通信VLEO
NORAD 48453·PAYLOAD·🇺🇸 United States

打ち上げ May 9, 2021 から Cape Canaveral Space Force Station

Loading…

次のパス (今後24時間)

TLE

最新Source: CelesTrak SupGP

元期: Sep 15, 2026, 02:03 UTC

1 48453C 21040AB  26258.08590278  .00005380  00000+0  17296-3 0  2584
2 48453  53.1611  16.6941 0001124  87.7240 356.1072 15.31706086    18

AllMySatでSTARLINK-2620をリアルタイム追跡

Download on the App Store